1504936801.14,59558,14.56,73406.0,4.91,2.21,2.25,0,*71
1504936802.39,59559,14.56,73404.0,4.91,2.21,2.25,0,*70
1504936803.61,59560,14.56,73392.0,4.91,1.71,1.83,0,*73
1504936804.86,59561,14.56,73410.3,4.91,2.09,2.21,0,*75
1504936806.08,59562,14.56,73412.8,4.89,2.05,2.09,0,*79
1504936807.31,59563,14.56,73436.8,4.89,2.05,2.09,0,*78
1504936808.53,59564,14.56,73464.5,4.89,1.97,2.05,0,*7B
1504936809.71,59565,14.56,73440.5,4.89,1.79,1.83,0,*77
1504936810.9,59566,14.56,73426.5,4.89,1.59,1.79,0,*73
1504936812.13,59567,14.56,73426.5,4.89,1.93,2.09,0,*70
1504936813.35,59568,14.56,73434.5,4.89,2.05,2.17,0,*7C
1504936814.58,59569,14.56,73438.3,4.89,2.17,2.21,0,*7B
1504936815.8,59570,14.56,73442.3,4.89,1.97,2.05,0,*7E
1504936817.02,59571,14.56,73422.3,4.89,1.55,1.59,0,*7B
1504936818.25,59572,14.56,73406.0,4.87,1.41,1.51,0,*7B
1504936819.45,59573,14.56,73402.3,4.85,1.67,1.75,0,*7A
1504936820.68,59574,14.56,73378.5,4.85,1.55,1.63,0,*7B
1504936821.88,59575,14.56,73354.0,4.85,1.79,1.93,0,*7B
1504936823.1,59576,14.56,73358.8,4.85,2.01,2.05,0,*78
1504936824.35,59577,14.56,73384.8,4.87,1.93,1.93,0,*7F
1504936825.6,59578,14.56,73378.5,4.87,1.63,1.55,0,*75
1504936826.87,59579,14.56,73382.5,4.87,1.33,1.09,0,*78
1504936828.09,59580,14.56,73368.0,4.85,1.67,1.29,0,*7F
1504936829.31,59581,14.56,73398.8,4.85,1.89,1.29,0,*7E
1504936830.54,59582,14.56,73392.5,4.81,1.97,1.25,0,*7A
1504936831.76,59583,14.56,73422.0,4.81,2.01,0.79,0,*4F
1504936832.97,59584,14.56,73428.0,4.81,1.89,0.41,0,*40
1504936834.18,59585,14.56,73386.5,4.85,1.55,-0.29,0,*67
1504936835.38,59586,14.56,73384.0,4.85,1.63,-0.81,0,*63
1504936836.62,59587,14.56,73364.0,4.79,1.25,-1.67,0,*5A
1504936837.86,59588,14.56,73382.8,4.79,1.05,-2.07,0,*52
1504936839.08,59589,14.56,73400.8,4.79,1.05,-2.15,0,*50
1504936840.32,59590,14.56,73396.0,4.79,1.13,-2.19,0,*53
1504936841.57,59591,14.56,73398.5,4.79,1.17,-2.31,0,*5C
1504936842.81,59592,14.56,73406.0,4.79,1.29,-2.19,0,*58
1504936844.05,59593,14.56,73404.0,4.77,1.43,-2.11,0,*53
1504936845.28,59594,14.56,73412.0,4.77,1.43,-2.11,0,*54
1504936846.55,59595,14.56,73380.5,4.75,1.55,-1.87,0,*5C
1504936847.76,59596,14.56,73382.8,4.79,1.75,-1.59,0,*52
1504936848.96,59597,14.56,73380.0,4.77,1.59,-1.75,0,*5D
1504936850.2,59598,14.56,73414.5,4.77,1.33,-1.95,0,*50
1504936851.45,59599,14.56,73430.8,4.77,1.37,-1.83,0,*52
1504936852.67,59600,14.56,73430.0,4.77,1.37,-1.71,0,*5C
1504936853.91,59601,14.56,73420.3,4.77,1.43,-1.47,0,*5B
1504936855.16,59602,14.56,73394.3,4.77,1.37,-1.39,0,*52
1504936856.43,59603,14.56,73400.0,4.79,1.37,-1.47,0,*54
1504936857.7,59604,14.5,73408.0,4.79,1.37,-1.35,0,*56
1504936858.93,59605,14.56,73434.0,4.79,1.41,-1.43,0,*57
1504936860.18,59606,14.56,73458.8,4.79,1.25,-1.71,0,*57
1504936861.41,59607,14.56,73416.3,4.79,0.55,-2.35,0,*63
1504936862.67,59608,14.56,73456.8,4.79,0.51,-2.55,0,*6E
1504936863.86,59609,14.56,73456.0,4.79,0.43,-2.79,0,*62
1504936865.08,59610,14.56,73458.8,4.79,0.13,-3.07,0,*67
1504936866.3,59611,14.56,73458.8,4.79,-0.29,-3.47,0,*46
1504936867.51,59612,14.56,73428.5,4.77,-0.23,-3.03,0,*41
1504936868.76,59613,14.56,73446.0,4.79,0.13,-2.55,0,*62
1504936869.96,59614,14.56,73452.5,4.79,0.01,-2.31,0,*54
1504936871.19,59615,14.56,73458.3,4.79,0.63,-1.21,0,*63
1504936872.41,59616,14.56,73426.3,4.79,0.67,-0.81,0,*5F
1504936873.61,59617,14.56,73416.5,4.81,0.79,-0.33,0,*5F
1504936874.8,59618,14.56,73446.8,4.81,0.79,0.01,0,*4C
1504936876.02,59619,14.56,73458.0,4.81,0.91,0.33,0,*7A
1504936877.25,59620,14.56,73454.3,4.79,1.01,0.63,0,*4A
1504936878.47,59621,14.56,73474.3,4.81,1.47,1.25,0,*7D
1504936879.7,59622,14.56,73462.0,4.81,1.51,1.37,0,*7A
1504936880.92,59623,14.56,73446.0,4.81,1.71,1.51,0,*79
1504936882.15,59624,14.56,73442.8,4.81,2.01,1.85,0,*73
1504936883.35,59625,14.56,73468.5,4.85,2.13,1.79,0,*76
1504936884.55,59626,14.56,73488.8,4.85,2.27,1.63,0,*79
1504936885.78,59627,14.56,73476.0,4.89,2.09,1.13,0,*7F
1504936887.0,59628,14.56,73466.5,4.89,1.93,0.59,0,*4F
1504936888.22,59629,14.5,73444.3,4.91,1.25,-0.61,0,*6C
1504936889.48,59630,14.56,73438.3,4.91,1.37,-0.97,0,*6E
1504936890.68,59631,14.56,73442.3,4.91,1.41,-1.59,0,*5D
1504936891.89,59632,14.56,73436.3,4.89,1.25,-2.39,0,*50
1504936893.15,59633,14.56,73460.5,4.91,1.63,-2.67,0,*51
1504936894.39,59634,14.56,73466.5,4.93,1.71,-3.35,0,*51
1504936895.6,59635,14.56,73476.3,4.95,1.43,-3.95,0,*5D
1504936896.82,59636,14.56,73472.5,4.95,1.13,-4.49,0,*5D
1504936898.03,59637,14.5,73458.5,4.95,1.43,-4.17,0,*52
1504936899.25,59638,14.56,73432.5,4.95,1.21,-4.33,0,*5F
1504936900.5,59639,14.56,73416.0,4.97,0.47,-4.85,0,*60
1504936901.74,59640,14.56,73408.3,4.97,-0.45,-5.23,0,*4C
1504936902.95,59641,14.56,73418.5,4.99,-1.71,-5.55,0,*74
1504936904.14,59642,14.56,73428.0,4.99,-3.03,-6.09,0,*7A
1504936905.4,59643,14.56,73424.8,5.01,-5.03,-6.97,0,*7A
1504936906.64,59644,14.5,73432.8,5.01,-6.19,-7.15,0,*7E
1504936907.9,59645,14.56,73440.8,5.01,-7.01,-7.01,0,*72
1504936909.12,59646,14.56,73416.3,5.03,-8.55,-7.77,0,*7C
1504936910.34,59647,14.5,73376.0,5.01,-8.75,-7.23,0,*7C
1504936911.56,59648,14.56,73422.3,5.01,-9.27,-7.23,0,*75
1504936912.76,59649,14.56,73412.8,5.03,-9.01,-6.43,0,*75
1504936913.95,59650,14.5,73420.5,5.03,-8.97,-6.01,0,*75
1504936915.14,59651,14.5,73406.8,5.03,-8.75,-5.43,0,*7D
1504936916.38,59652,14.56,73446.0,5.01,-8.59,-5.03,0,*76
1504936917.6,59653,14.56,73438.0,5.03,-8.41,-4.85,0,*73
1504936918.82,59654,14.5,73406.5,5.03,-7.69,-4.25,0,*7B
1504936920.01,59655,14.56,73402.5,5.03,-6.43,-2.99,0,*72
1504936921.26,59656,14.5,73418.8,5.03,-5.19,-2.07,0,*7A
1504936922.47,59657,14.5,73416.3,5.03,-4.01,-1.25,0,*70
1504936923.69,59658,14.56,73418.3,5.03,-2.67,-0.33,0,*4F
1504936924.89,59659,14.56,73368.0,5.03,-1.55,0.25,0,*66
1504936926.09,59660,14.56,73388.3,5.03,-0.57,0.55,0,*58
1504936927.29,59661,14.5,73368.8,5.03,-0.07,0.55,0,*6C
1504936928.46,59662,14.5,73376.8,5.03,-0.11,0.01,0,*69
1504936929.64,59663,14.5,73348.0,5.03,-0.49,-0.33,0,*79
1504936930.88,59664,14.56,73370.3,5.01,0.29,0.29,0,*71
1504936932.09,59665,14.56,73390.8,5.01,0.29,0.01,0,*4A
1504936933.3,59666,14.5,73382.0,5.01,0.01,-0.85,0,*62
1504936934.5,59667,14.56,73402.8,5.01,-0.33,-1.79,0,*4D
1504936935.68,59668,14.5,73392.5,4.99,-0.61,-2.79,0,*46
1504936936.91,59669,14.5,73398.0,4.97,-0.93,-4.41,0,*49
1504936938.13,59670,14.5,73388.5,4.97,-1.21,-6.01,0,*7F
1504936939.36,59671,14.5,73392.8,4.97,-1.51,-7.35,0,*7F
1504936940.6,59672,14.5,73386.0,4.97,-1.39,-8.41,0,*7E
1504936941.8,59673,14.5,73414.0,4.95,-1.33,-9.67,0,*72
1504936943.02,59674,14.5,73422.5,4.95,-1.67,-11.59,0,*40
1504936944.24,59675,14.56,73398.8,4.93,-2.83,-13.47,0,*43
1504936945.49,59676,14.56,73384.0,4.91,-3.59,-14.89,0,*41
1504936946.71,59677,14.5,73364.5,4.93,-4.61,-16.75,0,*4F
1504936947.93,59678,14.5,73346.5,4.89,-5.19,-17.73,0,*42
1504936949.15,59679,14.56,73314.3,4.89,-5.47,-17.11,0,*4C
1504936950.37,59680,14.5,73320.0,4.87,-5.47,-15.53,0,*40
1504936951.61,59681,14.56,73324.8,4.87,-5.19,-13.93,0,*40
1504936952.88,59682,14.5,73332.8,4.87,-5.07,-13.37,0,*42
1504936954.1,59683,14.5,73348.5,4.85,-4.81,-13.11,0,*4A
1504936955.33,59684,14.5,73392.0,4.87,-4.93,-13.65,0,*4F
1504936956.55,59685,14.5,73382.3,4.85,-5.39,-15.01,0,*49
1504936957.76,59686,14.5,73402.8,4.85,-6.69,-17.59,0,*43
1504936959.0,59687,14.56,73410.5,4.79,-7.39,-18.83,0,*4D
1504936960.24,59688,14.5,73408.0,4.79,-7.95,-19.47,0,*4D
1504936961.46,59689,14.56,73420.5,4.79,-8.33,-19.37,0,*48
1504936962.7,59690,14.5,73412.5,4.79,-8.81,-19.51,0,*49
1504936963.92,59691,14.5,73412.3,4.77,-9.83,-20.73,0,*4F
1504936965.12,59692,14.5,73418.0,4.77,-10.53,-21.39,0,*76
1504936966.37,59693,14.5,73424.3,4.75,-11.23,-22.21,0,*79
1504936967.6,59694,14.5,73424.0,4.77,-11.67,-22.83,0,*74
1504936968.85,59695,14.5,73432.8,4.77,-11.93,-23.33,0,*74
1504936970.1,59696,14.5,73442.8,4.75,-12.79,-24.51,0,*71
1504936971.31,59697,14.5,73446.8,4.73,-12.97,-24.77,0,*72
1504936972.54,59698,14.5,73450.0,4.73,-13.51,-25.03,0,*74
1504936973.77,59699,14.5,73448.0,4.73,-14.11,-25.45,0,*74
1504936975.01,59700,14.5,73442.0,4.73,-14.97,-25.81,0,*73
1504936976.2,59701,14.5,73430.8,4.73,-15.67,-25.91,0,*7D
1504936977.46,59702,14.5,73432.3,4.73,-16.13,-25.75,0,*74
1504936978.69,59703,14.5,73446.0,4.73,-16.89,-25.81,0,*7D
1504936979.95,59704,14.5,73444.3,4.73,-17.45,-25.75,0,*70
1504936981.18,59705,14.5,73430.8,4.69,-18.17,-25.55,0,*70
1504936982.45,59706,14.5,73426.8,4.67,-19.81,-26.17,0,*76
1504936983.72,59707,14.5,73452.3,4.67,-20.79,-26.29,0,*77
1504936984.92,59708,14.5,73448.8,4.69,-21.39,-26.03,0,*7B
1504936986.15,59709,14.5,73442.5,4.67,-22.67,-26.39,0,*75
1504936987.39,59710,14.5,73448.0,4.67,-23.59,-26.39,0,*71
1504936988.61,59711,14.5,73454.0,4.65,-23.85,-25.91,0,*72
1504936989.84,59712,14.5,73456.3,4.63,-24.31,-25.35,0,*71
1504936991.07,59713,14.5,73454.0,4.65,-24.47,-24.67,0,*71
1504936992.3,59714,14.5,73450.8,4.63,-24.93,-24.11,0,*78
1504936993.53,59715,14.5,73454.0,4.63,-24.51,-22.41,0,*74
1504936994.78,59716,14.5,73454.5,4.63,-23.99,-21.09,0,*7B
1504936996.02,59717,14.5,73442.3,4.57,-22.73,-18.89,0,*7A
1504936997.27,59718,14.5,73442.8,4.61,-20.53,-16.27,0,*7A
1504936998.5,59719,14.5,73430.8,4.61,-18.25,-13.83,0,*7A
1504936999.7,59720,14.5,73460.5,4.61,-15.29,-11.19,0,*70
1504937000.89,59721,14.5,73444.8,4.61,-12.03,-8.55,0,*4E
1504937002.09,59722,14.5,73448.5,4.61,-10.19,-7.19,0,*43
1504937003.34,59723,14.5,73442.0,4.61,-9.11,-6.27,0,*7E
1504937004.56,59724,14.5,73440.0,4.61,-8.93,-5.77,0,*74
1504937005.75,59725,14.5,73434.8,4.61,-8.55,-4.99,0,*7E
1504937006.94,59726,14.5,73458.3,4.61,-8.29,-4.49,0,*7B
1504937008.17,59727,14.5,73452.3,4.65,-7.99,-4.93,0,*7D
1504937009.45,59728,14.5,73450.0,4.63,-7.57,-5.61,0,*7A
1504937010.66,59729,14.5,73432.0,4.65,-7.27,-6.51,0,*7A
1504937011.88,59730,14.5,73436.3,4.63,-6.89,-6.89,0,*74
1504937013.09,59731,14.5,73434.0,4.65,-6.39,-6.63,0,*7C
1504937014.32,59732,14.5,73430.5,4.65,-5.85,-5.77,0,*7D
1504937015.57,59733,14.5,73436.5,4.65,-5.65,-5.31,0,*70
1504937016.78,59734,14.5,73434.3,4.65,-5.23,-4.65,0,*75
1504937018.02,59735,14.5,73446.0,4.67,-4.81,-4.13,0,*7E
1504937019.25,59736,14.5,73446.8,4.67,-4.37,-3.63,0,*70
1504937020.52,59737,14.5,73450.0,4.67,-3.63,-2.63,0,*76
1504937021.71,59738,14.5,73454.3,4.65,-2.79,-1.79,0,*79
1504937022.89,59739,14.5,73452.5,4.69,-1.59,-0.81,0,*43
1504937024.09,59740,14.5,73450.5,4.69,-0.81,-0.23,0,*71
1504937025.28,59741,14.5,73438.0,4.69,0.41,0.43,0,*7A
1504937026.51,59742,14.5,73436.3,4.69,1.25,1.13,0,*7E
1504937027.69,59743,14.5,73436.0,4.69,1.79,1.75,0,*76
1504937028.91,59744,14.5,73432.8,4.73,2.01,1.89,0,*75
1504937030.14,59745,14.5,73428.0,4.73,2.13,2.25,0,*72
1504937031.36,59746,14.5,73412.8,4.73,2.25,2.25,0,*74
1504937032.6,59747,14.5,73418.5,4.77,2.17,2.39,0,*7D
1504937033.85,59748,14.5,73420.8,4.75,2.47,2.55,0,*7F
1504937035.08,59749,14.5,73422.5,4.77,2.43,2.55,0,*78
1504937036.33,59750,14.5,73416.8,4.79,2.59,2.55,0,*75
1504937037.53,59751,14.5,73426.5,4.79,2.35,2.31,0,*7C
1504937038.76,59752,14.5,73424.5,4.79,2.35,2.13,0,*7F
1504937039.98,59753,14.5,73432.8,4.81,2.25,1.97,0,*77
1504937041.19,59754,14.5,73436.0,4.81,2.25,1.75,0,*7C
1504937042.41,59755,14.5,73438.3,4.81,2.01,1.47,0,*7A
1504937043.63,59756,14.5,73436.5,4.81,1.89,1.17,0,*7F
1504937044.85,59757,14.5,73440.0,4.81,1.59,0.79,0,*4A
1504937046.1,59758,14.5,73440.5,4.79,1.17,0.51,0,*42
1504937047.31,59759,14.5,73450.5,4.85,1.05,0.47,0,*44
1504937048.52,59760,14.5,73444.3,4.85,0.83,0.29,0,*79
1504937049.74,59761,14.5,73450.5,4.85,0.33,-0.27,0,*50
1504937050.91,59762,14.5,73446.5,4.85,-0.07,-0.69,0,*43
1504937052.12,59763,14.5,73444.8,4.85,-0.29,-1.05,0,*45
1504937053.33,59764,14.5,73446.8,4.85,-0.81,-1.99,0,*45
1504937054.51,59765,14.5,73448.0,4.81,-1.59,-2.79,0,*79
1504937055.71,59766,14.5,73456.3,4.85,-2.19,-3.55,0,*76
1504937056.93,59767,14.5,73452.5,4.85,-3.31,-4.85,0,*76
1504937058.14,59768,14.5,73442.5,4.85,-4.41,-5.77,0,*75
1504937059.38,59769,14.5,73436.5,4.81,-5.77,-6.97,0,*79
1504937060.65,59770,14.5,73440.3,4.79,-7.05,-8.07,0,*76
1504937061.92,59771,14.5,73452.3,4.79,-8.81,-9.49,0,*7F
1504937063.11,59772,14.5,73460.3,4.81,-10.45,-10.89,0,*7E
1504937064.34,59773,14.5,73456.5,4.79,-12.25,-12.25,0,*78
1504937065.6,59774,14.5,73450.5,4.79,-13.55,-13.61,0,*78
1504937066.82,59775,14.5,73460.0,4.77,-14.61,-14.51,0,*73
1504937068.05,59776,14.5,73454.0,4.79,-16.45,-16.59,0,*70
1504937069.33,59777,14.5,73430.3,4.79,-17.21,-17.63,0,*7A
1504937070.56,59778,14.5,73436.0,4.77,-18.01,-18.65,0,*7F
1504937071.78,59779,14.5,73466.8,4.75,-19.03,-19.75,0,*7F
1504937073.0,59780,14.5,73448.3,4.77,-20.35,-21.43,0,*7A
1504937074.23,59781,14.5,73464.5,4.75,-21.17,-22.37,0,*78
1504937075.5,59782,14.5,73448.8,4.75,-22.21,-23.69,0,*77
1504937076.72,59783,14.5,73450.8,4.73,-22.67,-23.99,0,*7D
1504937077.96,59784,14.5,73436.0,4.73,-23.33,-24.67,0,*7C
1504937079.21,59785,14.5,73434.0,4.73,-23.33,-24.67,0,*7D
1504937080.45,59786,14.5,73440.3,4.73,-23.33,-24.67,0,*7E
1504937081.67,59787,14.5,73456.0,4.73,-23.19,-24.05,0,*73
1504937082.91,59788,14.5,73434.5,4.73,-22.53,-23.23,0,*70
1504937084.11,59789,14.5,73422.0,4.73,-22.27,-22.57,0,*70
1504937085.3,59790,14.5,73446.8,4.73,-22.41,-22.11,0,*7A
1504937086.5,59791,14.5,73446.8,4.77,-22.27,-21.43,0,*7B
1504937087.74,59792,14.5,73426.5,4.75,-23.09,-21.17,0,*76
1504937088.95,59793,14.5,73472.8,4.77,-23.79,-20.89,0,*74
1504937090.19,59794,14.5,73484.3,4.79,-23.23,-19.07,0,*7E
1504937091.42,59795,14.5,73476.3,4.81,-23.43,-18.01,0,*79
1504937092.68,59796,14.5,73494.8,4.81,-23.53,-17.07,0,*72
1504937093.91,59797,14.5,73496.3,4.87,-22.87,-15.53,0,*7E
1504937095.16,59798,14.5,73488.0,4.89,-22.21,-14.47,0,*77
1504937096.41,59799,14.5,73478.8,4.91,-21.39,-13.33,0,*71
1504937097.62,59800,14.5,73468.0,4.91,-20.29,-12.29,0,*74
1504937098.85,59801,14.5,73468.8,4.95,-19.47,-11.85,0,*76
1504937100.06,59802,14.5,73470.0,4.95,-18.21,-11.11,0,*79
1504937101.29,59803,14.5,73452.5,4.99,-16.69,-10.57,0,*75
1504937102.49,59804,14.5,73432.0,4.99,-15.25,-9.97,0,*4D
1504937103.67,59805,14.5,73426.5,5.03,-13.15,-8.75,0,*46
1504937104.92,59806,14.5,73424.5,5.03,-11.89,-8.03,0,*43
1504937106.15,59807,14.5,73424.5,5.09,-10.01,-7.05,0,*40
1504937107.34,59808,14.5,73426.5,5.11,-8.89,-6.77,0,*7B
1504937108.55,59809,14.5,73430.5,5.13,-8.29,-6.77,0,*72
1504937109.76,59810,14.5,73420.5,5.15,-7.95,-6.73,0,*70
1504937110.97,59811,14.5,73424.5,5.15,-8.03,-6.77,0,*75
1504937112.19,59812,14.5,73420.0,5.15,-7.95,-6.55,0,*76
1504937113.4,59813,14.5,73396.5,5.15,-8.03,-6.43,0,*70
1504937114.61,59814,14.5,73376.3,5.17,-8.67,-6.55,0,*70
1504937115.85,59815,14.5,73388.8,5.17,-8.67,-6.27,0,*74
1504937117.04,59816,14.5,73394.8,5.15,-8.75,-6.43,0,*74
1504937118.26,59817,14.5,73390.0,5.17,-9.19,-7.11,0,*7A
1504937119.44,59818,14.5,73366.0,5.15,-9.67,-8.17,0,*77
1504937120.66,59819,14.5,73390.0,5.15,-9.15,-8.33,0,*75
1504937121.85,59820,14.5,73398.3,5.15,-8.63,-8.75,0,*7D
1504937123.04,59821,14.5,73410.8,5.15,-7.11,-8.59,0,*78
1504937124.28,59822,14.5,73400.3,5.17,-6.01,-9.37,0,*70
1504937125.5,59823,14.5,73382.3,5.17,-5.35,-10.45,0,*48
1504937126.73,59824,14.5,73392.8,5.17,-4.85,-12.25,0,*41
1504937127.95,59825,14.5,73382.3,5.17,-4.57,-14.15,0,*4A
1504937129.16,59826,14.5,73376.0,5.19,-4.25,-15.71,0,*41
1504937130.42,59827,14.5,73378.0,5.21,-5.07,-18.01,0,*40
1504937131.67,59828,14.5,73352.0,5.21,-6.09,-19.61,0,*45
1504937132.9,59829,14.5,73362.8,5.19,-6.93,-20.59,0,*4D
1504937134.12,59830,14.5,73366.5,5.19,-7.19,-20.99,0,*4A
1504937135.34,59831,14.5,73358.3,5.19,-6.31,-19.81,0,*43
1504937136.57,59832,14.5,73352.3,5.15,-6.97,-20.63,0,*46
1504937137.8,59833,14.5,73362.8,5.15,-8.63,-21.67,0,*47
1504937139.0,59834,14.5,73332.8,5.15,-10.49,-22.63,0,*76
1504937140.24,59835,14.5,73350.3,5.13,-12.83,-23.79,0,*7F
1504937141.46,59836,14.5,73428.5,5.11,-14.37,-23.29,0,*72
1504937142.68,59837,14.5,73396.8,5.11,-16.41,-23.29,0,*70
1504937143.93,59838,14.5,73364.0,5.13,-18.31,-23.59,0,*73
1504937145.2,59839,14.5,73414.8,5.09,-20.35,-23.85,0,*77
1504937146.4,59840,14.5,73398.8,5.07,-20.73,-22.93,0,*73
1504937147.66,59841,14.5,73392.3,5.07,-21.67,-22.77,0,*7C
1504937148.88,59842,14.5,73402.3,5.03,-22.67,-22.77,0,*78
1504937150.14,59843,14.5,73414.8,5.01,-23.43,-22.77,0,*7C
1504937151.37,59844,14.5,73434.3,5.01,-23.75,-22.57,0,*7C
1504937152.59,59845,14.5,73424.5,5.01,-23.79,-22.27,0,*76
1504937153.82,59846,14.5,73422.3,4.99,-24.11,-22.37,0,*7D
1504937155.08,59847,14.5,73412.0,4.99,-24.83,-23.03,0,*71
1504937156.33,59848,14.5,73450.8,4.97,-24.97,-23.19,0,*7E
1504937157.58,59849,14.5,73448.8,4.97,-24.83,-22.87,0,*7C
1504937158.84,59850,14.5,73438.0,4.97,-25.03,-22.93,0,*78
1504937160.03,59851,14.5,73440.0,4.95,-24.93,-22.97,0,*77
1504937161.29,59852,14.5,73452.5,4.93,-22.83,-21.67,0,*79
1504937162.51,59853,14.5,73438.8,4.91,-22.03,-21.73,0,*77
1504937163.75,59854,14.5,73432.5,4.91,-21.83,-22.41,0,*79
1504937164.97,59855,14.5,73432.3,4.91,-21.73,-22.83,0,*79
1504937166.22,59856,14.5,73458.8,4.91,-22.31,-23.79,0,*7B
1504937167.42,59857,14.5,73466.8,4.89,-22.53,-24.31,0,*7C
1504937168.64,59858,14.5,73450.8,4.89,-22.53,-24.41,0,*74
1504937169.84,59859,14.5,73420.0,4.89,-22.53,-24.57,0,*72
1504937171.09,59860,14.5,73422.8,4.89,-22.31,-24.25,0,*79
1504937172.34,59861,14.5,73426.5,4.87,-21.83,-23.79,0,*72
1504937173.62,59862,14.5,73426.3,4.87,-21.27,-23.19,0,*79
1504937174.87,59863,14.5,73396.5,4.85,-21.03,-23.19,0,*7C
1504937176.08,59864,14.5,73382.8,4.87,-20.05,-22.41,0,*72
1504937177.29,59865,14.5,73372.5,4.81,-19.37,-22.27,0,*7E
1504937178.49,59866,14.5,73374.5,4.81,-18.41,-22.03,0,*7B
1504937179.71,59867,14.5,73384.5,4.81,-16.89,-21.33,0,*70
1504937180.9,59868,14.5,73384.3,4.81,-14.69,-19.99,0,*78
1504937182.16,59869,14.5,73384.8,4.81,-13.29,-19.61,0,*7D
1504937183.38,59870,14.5,73370.5,4.85,-12.57,-19.95,0,*72
1504937184.61,59871,14.5,73374.3,4.89,-12.15,-20.93,0,*75
1504937185.86,59872,14.5,73380.3,4.91,-12.21,-21.97,0,*7D
1504937187.13,59873,14.5,73384.5,4.91,-12.61,-22.73,0,*71
1504937188.34,59874,14.5,73392.8,4.95,-12.29,-22.57,0,*78
1504937189.56,59875,14.5,73396.3,4.95,-12.07,-22.37,0,*73
1504937190.82,59876,14.5,73404.8,4.95,-11.73,-21.83,0,*7C
1504937192.04,59877,14.5,73410.5,4.99,-11.55,-21.43,0,*79
1504937193.27,59878,14.5,73416.8,5.01,-12.21,-21.73,0,*75
1504937194.49,59879,14.5,73408.8,5.03,-13.33,-22.41,0,*76
1504937195.73,59880,14.5,73414.0,5.03,-14.75,-23.29,0,*7A
1504937196.96,59881,14.5,73396.0,5.03,-15.81,-23.79,0,*74
1504937198.15,59882,14.5,73406.8,5.03,-16.93,-24.35,0,*78
1504937199.37,59883,14.5,73404.5,5.03,-17.07,-23.79,0,*7A
1504937200.59,59884,14.5,73404.3,5.03,-17.55,-23.89,0,*75
1504937201.82,59885,14.5,73408.0,5.03,-17.69,-23.65,0,*79
1504937203.04,59886,14.5,73392.0,5.03,-18.01,-23.79,0,*76
1504937204.24,59887,14.5,73388.5,5.03,-19.71,-25.35,0,*7F
1504937205.5,59888,14.5,73382.3,5.01,-20.89,-26.33,0,*7A
1504937206.73,59889,14.5,73370.5,5.03,-21.53,-26.65,0,*7C
1504937208.01,59890,14.5,73388.8,5.01,-22.31,-26.93,0,*78
1504937209.25,59891,14.5,73406.8,5.01,-22.31,-26.23,0,*72
1504937210.5,59892,14.5,73412.0,4.97,-23.03,-26.61,0,*79
1504937211.73,59893,14.5,73440.0,4.95,-23.33,-26.65,0,*7D
1504937212.96,59894,14.5,73446.5,4.95,-23.33,-26.49,0,*74
1504937214.22,59895,14.5,73444.8,4.93,-23.29,-26.39,0,*7F
1504937215.46,59896,14.5,73452.5,4.93,-23.59,-26.39,0,*7B
1504937216.72,59897,14.5,73448.5,4.93,-23.75,-26.33,0,*7E
1504937217.97,59898,14.5,73458.5,4.93,-24.11,-26.23,0,*75
1504937219.23,59899,14.5,73462.8,4.91,-24.21,-25.91,0,*7F
1504937220.49,59900,14.5,73458.0,4.91,-24.71,-26.03,0,*73
1504937221.71,59901,14.5,73458.8,4.89,-25.91,-26.71,0,*71
1504937222.95,59902,14.5,73466.5,4.89,-26.13,-26.55,0,*7D
1504937224.2,59903,14.5,73462.8,4.85,-26.13,-25.75,0,*71
1504937225.43,59904,14.5,73474.5,4.85,-26.17,-25.35,0,*76
1504937226.63,59905,14.5,73476.8,4.81,-26.03,-24.35,0,*77
1504937227.92,59906,14.5,73472.8,4.79,-26.33,-24.21,0,*75
1504937229.18,59907,14.44,73434.8,4.79,-25.97,-22.57,0,*7E
1504937230.41,59908,14.5,73432.8,4.77,-25.55,-21.39,0,*7A
1504937231.63,59909,14.5,73436.3,4.79,-25.23,-20.09,0,*76
1504937232.89,59910,14.5,73412.0,4.77,-24.71,-18.59,0,*78
1504937234.14,59911,14.5,73412.5,4.75,-23.53,-16.55,0,*7E
1504937235.37,59912,14.5,73444.0,4.77,-22.63,-14.51,0,*7B
1504937236.6,59913,14.5,73454.0,4.77,-22.17,-12.93,0,*71
1504937237.82,59914,14.5,73456.5,4.77,-21.63,-11.51,0,*7B
1504937239.04,59915,14.5,73458.0,4.75,-20.25,-9.89,0,*47
1504937240.27,59916,14.5,73448.8,4.75,-18.69,-8.89,0,*46
1504937241.54,59917,14.5,73448.0,4.75,-16.69,-8.11,0,*48
1504937242.81,59918,14.5,73440.3,4.75,-13.79,-7.57,0,*4E
1504937244.08,59919,14.44,73436.0,4.75,-11.67,-7.73,0,*44
1504937245.3,59920,14.5,73444.0,4.77,-10.71,-8.63,0,*44
1504937246.56,59921,14.5,73444.8,4.79,-10.63,-10.31,0,*76
1504937247.79,59922,14.5,73448.8,4.81,-11.59,-12.25,0,*7D
1504937249.04,59923,14.5,73434.0,4.81,-12.57,-13.97,0,*79
1504937250.27,59924,14.5,73418.5,4.87,-13.65,-15.53,0,*76
1504937251.5,59925,14.5,73426.3,4.87,-15.53,-17.35,0,*76
1504937252.75,59926,14.5,73440.8,4.87,-17.93,-19.75,0,*71
1504937254.0,59927,14.5,73444.3,4.89,-19.85,-21.27,0,*7B
1504937255.22,59928,14.5,73442.0,4.89,-20.05,-21.23,0,*72
1504937256.47,59929,14.5,73436.0,4.91,-19.71,-20.79,0,*7D
1504937257.75,59930,14.5,73424.8,4.93,-18.93,-20.15,0,*70
1504937258.98,59931,14.5,73426.3,4.95,-18.21,-19.65,0,*73
1504937260.21,59932,14.5,73432.8,4.99,-17.79,-19.99,0,*7D
1504937261.44,59933,14.5,73442.8,4.99,-17.25,-19.91,0,*7D
1504937262.67,59934,14.5,73438.8,5.01,-17.73,-20.89,0,*7A
1504937263.95,59935,14.5,73436.8,5.01,-18.01,-21.53,0,*77
1504937265.19,59936,14.5,73440.0,5.01,-18.59,-22.41,0,*79
1504937266.45,59937,14.5,73452.8,5.01,-19.57,-23.13,0,*71
1504937267.65,59938,14.5,73438.5,5.03,-20.43,-23.79,0,*7F
1504937268.87,59939,14.5,73426.8,5.01,-21.09,-24.05,0,*7F
1504937270.12,59940,14.44,73420.5,5.03,-21.53,-23.53,0,*78
1504937271.35,59941,14.5,73430.5,5.03,-21.83,-22.57,0,*71
1504937272.57,59942,14.5,73438.3,5.03,-21.97,-21.47,0,*75
1504937273.78,59943,14.5,73436.5,5.03,-22.27,-20.29,0,*75
1504937274.97,59944,14.5,73440.5,5.07,-22.63,-19.47,0,*74
1504937276.17,59945,14.5,73438.0,5.07,-22.63,-18.07,0,*70
1504937277.39,59946,14.5,73420.3,5.07,-20.05,-14.55,0,*7A
1504937278.66,59947,14.5,73410.0,5.09,-18.59,-12.65,0,*72
1504937279.86,59948,14.5,73412.5,5.11,-16.89,-10.27,0,*73
1504937281.1,59949,14.5,73420.3,5.13,-15.43,-8.75,0,*4B
1504937282.34,59950,14.5,73420.5,5.13,-14.29,-7.65,0,*40
1504937283.59,59951,14.5,73424.8,5.17,-12.53,-6.31,0,*4E
1504937284.83,59952,14.5,73414.5,5.17,-11.41,-5.77,0,*4C
1504937286.03,59953,14.5,73412.5,5.15,-10.49,-5.51,0,*42
1504937287.3,59954,14.5,73400.5,5.17,-9.37,-5.11,0,*72
1504937288.52,59955,14.5,73432.8,5.15,-8.45,-4.77,0,*74
1504937289.73,59956,14.5,73458.8,5.17,-5.47,-2.79,0,*72
1504937290.94,59957,14.5,73462.3,5.21,-3.87,-2.15,0,*76
1504937292.16,59958,14.5,73500.8,5.25,-3.39,-2.47,0,*7F
1504937293.35,59959,14.5,73510.5,5.29,-4.25,-4.33,0,*7D
1504937294.61,59960,14.5,73454.3,5.31,-4.89,-5.81,0,*70
1504937295.85,59961,14.5,73418.8,5.31,-4.81,-6.51,0,*77
1504937297.06,59962,14.5,73394.0,5.35,-4.65,-6.89,0,*7F
1504937298.28,59963,14.5,73386.8,5.37,-5.03,-7.83,0,*76
1504937299.49,59964,14.5,73404.8,5.41,-6.27,-9.67,0,*71
1504937300.75,59965,14.5,73422.5,5.43,-8.93,-12.79,0,*46
1504937301.98,59966,14.44,73440.5,5.43,-11.23,-15.29,0,*74
1504937303.25,59967,14.5,73444.8,5.43,-13.37,-17.93,0,*71
1504937304.48,59968,14.5,73454.3,5.43,-15.53,-19.75,0,*7C
1504937305.7,59969,14.5,73438.5,5.41,-16.75,-20.83,0,*7B
1504937306.91,59970,14.5,73420.5,5.41,-18.41,-22.57,0,*71
1504937308.11,59971,14.5,73408.0,5.41,-19.37,-23.39,0,*79
1504937309.3,59972,14.5,73422.5,5.37,-21.09,-24.93,0,*7A
1504937310.53,59973,14.5,73404.3,5.37,-22.11,-25.75,0,*78
1504937311.76,59974,14.5,73404.8,5.37,-21.87,-25.19,0,*79
1504937312.98,59975,14.5,73414.8,5.35,-22.27,-25.35,0,*7D
1504937314.18,59976,14.5,73438.3,5.33,-22.37,-25.23,0,*7E
1504937315.43,59977,14.5,73450.3,5.33,-22.21,-24.83,0,*73
1504937316.68,59978,14.5,73442.0,5.31,-22.11,-24.71,0,*70
1504937317.93,59979,14.5,73428.8,5.31,-22.11,-24.71,0,*71
1504937319.13,59980,14.5,73454.5,5.29,-21.63,-24.35,0,*78